OPS 4682 DEB, 38375

Orbit data source: Space-Track

OPS 4682 DEB, 38375 is space debris in LEO originally from a launch on Sat, 03 Apr 1965 UTC launched from the Air Force Western Test Range (AFWTR). Debris objects in space refer to the collection of defunct objects orbiting the Earth. Examples of debris include non-operational satellites, rocket bodies, and fragments generated from explosions, collisions, or faulty payload assembly.

Loading next visibility...
Identifier
38375, 1965-027CC
Orbit
LEO
Country
Flag of USUS
Related business
Manufacturer
Unknown
Mission
Spacecraft
Bus & Motor
Unknown
Mass
Unknown
Launch date (UTC)
1965-04-03 (61 years ago)
Launch vehicle
Unknown
Launch site
Air Force Western Test Range (AFWTR)
Object type
Payload
Rocket body
Debris
Shape & HBR
Unknown shape, 0.1 m
Radar Cross Section
Small (<0.1 m²)

Expand to show TLE details & history
Last TLE update: 3 days ago

TLE from 3 days ago
0 OPS 4682 DEB
1 38375U 65027CC  26102.42373779  .00000235  00000-0  81298-3 0  9990
2 38375  90.2437   5.6140 0033581  22.1672 338.0891 12.94887153607619
Epoch: 2026-04-12T10:10Z
TLE epoch observation values (Epoch: 2026-04-12T10:10:10.945Z)
Latitude
0.00005°
Longitude
12.4395°
Altitude
1,261.203 km
Speed
7.236 km/s
True Right ascension
00h 22m 27s
True Declination
0° 00' 00"
Sunlit
Object was in daylight at epoch
Visualization orbit readout
Latitude
Unknown
Longitude
Unknown
Altitude
Unknown
Speed
Unknown
Apparent Right ascension
Unknown
Apparent Declination
Unknown
Sunlit
N/A
Visualization observer readout
Local Sidereal Time
07:32:20
Azimuth
Unknown
Elevation
Unknown
Doppler factor
Unknown
Orbital elements
Apogee altitude
1,305.034 km
Perigee altitude
1,253.605 km
Semi-major axis
7,657.457 km
Eccentricity
0.00336
Inclination
90.2437°
RAAN
5.614°
Arg. of periapsis
22.1672°
True anomaly
337.94494°
Mean anomaly
338.0891°
Eccentric anomaly
338.01708°
Mean motion
3.23904 °/min
Orbital period
111.14 mins
BSTAR
0.00081298
Loading maneuver chart data...
Computing Atmospheric mass density...
Loading historical data...
Loading historical data...
Loading historical data...
Loading historical data...
Loading historical data...
Loading historical data...
Loading historical data...

Documentation

Showing up to 5 results
|